"2010-02-28 00:00:00",1719639,7.49,144.2,15.5,1.683,9.11,102.4076,5.444,6.634,26.2,0,109.9,13.46,6.22,106.2
"2010-02-28 00:00:30",1719640,7.893,148.3,9.3,1.032,9.84,102.4076,5.444,6.633,26.04,0,109.9,13.46,6.22,110.3
"2010-02-28 00:01:00",1719641,8.18,158,6.761,1.122,10.4,102.4067,5.442,6.703,25.89,0,109.9,13.46,6.21,120.0
"2010-02-28 00:01:30",1719642,7.12,153.1,8.3,1.395,9.6,102.4036,5.434,6.646,25.98,0,109.9,13.46,6.20,115.1
"2010-02-28 00:02:00",1719643,6.061,143.5,6.94,1.505,8.18,102.398,5.42,6.527,25.95,0,109.9,13.46,6.19,105.5
"2010-02-28 00:02:30",1719644,6.649,154.3,4.013,1.621,7.632,102.3929,5.407,6.568,26.37,0,109.9,13.46,6.18,116.3
"2010-02-28 00:03:00",1719645,7.315,147.4,10.69,1.15,8.3,102.3887,5.396,6.563,26.65,0,109.9,13.46,6.17,109.4
"2010-02-28 00:03:30",1719646,6.214,136.6,17.92,1.237,8.94,102.3774,5.367,6.602,27.2,0,109.9,13.46,6.14,98.6
"2010-02-28 00:04:00",1719647,7.342,171.5,6.867,1.345,10.06,102.374,5.358,6.676,27.28,0,109.9,13.46,6.13,133.5
"2010-02-28 00:04:30",1719648,9.23,159.2,9.63,1.658,9.13,102.3737,5.357,6.566,25.65,0,109.9,13.46,6.13,121.2
"2010-02-28 00:05:00",1719649,8.25,141,11.32,1.443,8.69,102.3737,5.357,6.634,25.64,0,109.9,13.46,6.13,103.0
"2010-02-28 00:05:30",1719650,6.668,136,15.11,2.354,7.933,102.3737,5.357,6.511,27.09,0,109.9,13.46,6.13,98.0
"2010-02-28 00:06:00",1719651,9.09,157.4,8.98,1.308,9.46,102.3737,5.357,6.618,25.69,0,109.9,13.46,6.13,119.4
"2010-02-28 00:06:30",1719652,8.53,159,7.439,1.304,8.56,102.3737,5.357,6.578,24.68,0,109.9,13.46,6.13,121.0
"2010-02-28 00:07:00",1719653,9.09,158.1,11.15,1.004,9.44,102.3734,5.357,6.606,25.45,0,109.9,13.46,6.13,120.1
"2010-02-28 00:07:30",1719654,8.46,153.4,7.139,1.229,9.2,102.3723,5.354,6.591,25.72,0,109.8,13.46,6.12,115.4
"2010-02-28 00:08:00",1719655,10.37,158,5.872,1.033,10.38,102.3689,5.345,6.646,26.17,0,109.9,13.46,6.12,120.0
"2010-02-28 00:08:30",1719656,10.02,158.2,8.15,1.112,10.39,102.3663,5.339,6.622,26.8,0,109.9,13.46,6.11,120.2
"2010-02-28 00:09:00",1719657,8.45,142.3,6.946,1.338,8.69,102.3567,5.314,6.565,27.61,0,109.9,13.46,6.08,104.3
"2010-02-28 00:09:30",1719658,6.877,139.7,7.755,1.084,9.81,102.3457,5.286,6.662,27.94,0,109.8,13.46,6.06,101.7
"2010-02-28 00:10:00",1719659,6.121,126.9,10.71,1.02,6.889,102.3398,5.271,6.391,27.85,0,109.9,13.46,6.04,88.9
"2010-02-28 00:10:30",1719660,7.61,139.7,7.977,1.661,9.06,102.3398,5.271,6.565,27.16,0,109.9,13.46,6.04,101.7
"2010-02-28 00:11:00",1719661,8.3,148.3,5.168,1.122,8.99,102.3398,5.271,6.552,25.2,0,109.9,13.46,6.04,110.3
"2010-02-28 00:11:30",1719662,9.44,162.1,9.97,0.945,11.12,102.3401,5.272,6.61,24.75,0,109.9,13.46,6.04,124.1
"2010-02-28 00:12:00",1719663,8.85,158.8,7.151,1.098,10.09,102.3401,5.272,6.607,25.14,0,109.9,13.46,6.04,120.8
"2010-02-28 00:12:30",1719664,9.07,151.9,6.988,1.063,9.5,102.3401,5.272,6.527,25.64,0,109.9,13.46,6.04,113.9
"2010-02-28 00:13:00",1719665,7.695,134.3,5.621,0.681,6.705,102.3398,5.271,6.398,25.77,0,109.9,13.46,6.04,96.3
"2010-02-28 00:13:30",1719666,8.93,146.1,9.56,1.412,8.88,102.3401,5.272,6.373,25.55,0,109.9,13.46,6.04,108.1
"2010-02-28 00:14:00",1719667,10.04,154.8,13.41,1.114,10.66,102.3403,5.272,6.599,25.54,0,109.8,13.46,6.04,116.8
"2010-02-28 00:14:30",1719668,8.66,150,7.974,1.089,10.67,102.3415,5.275,6.618,26.03,0,109.9,13.46,6.05,112.0
"2010-02-28 00:15:00",1719669,9.38,146.4,8.97,0.891,10.88,102.3424,5.278,6.6,25.49,0,109.9,13.46,6.05,108.4
"2010-02-28 00:15:30",1719670,6.847,146.5,13.64,2.215,9.55,102.3421,5.277,6.544,25.84,0,109.9,13.46,6.05,108.5
"2010-02-28 00:16:00",1719671,5.608,137.5,13.14,1.223,6.418,102.3444,5.283,6.393,26.2,0,109.9,13.46,6.05,99.5
"2010-02-28 00:16:30",1719672,8.44,143.7,8.99,1.48,8.81,102.3435,5.28,6.351,24.73,0,109.9,13.46,6.05,105.7
"2010-02-28 00:17:00",1719673,8.82,153.8,10.59,1.196,9.42,102.3458,5.286,6.429,25.45,0,109.9,13.46,6.06,115.8
"2010-02-28 00:17:30",1719674,8.99,151.8,7.621,1.197,10.37,102.347,5.289,6.529,25.67,0,109.9,13.47,6.06,113.8
"2010-02-28 00:18:00",1719675,9.22,145.7,4.278,1.036,10.85,102.3476,5.291,6.57,25.98,0,109.9,13.47,6.06,107.7
"2010-02-28 00:18:30",1719676,10.35,154.6,3.196,1.068,10.66,102.3508,5.299,6.582,26.54,0,109.8,13.47,6.07,116.6
"2010-02-28 00:19:00",1719677,9.17,142.3,5.448,1.055,10.6,102.354,5.307,6.589,27.4,0,109.9,13.46,6.08,104.3
"2010-02-28 00:19:30",1719678,8.36,151.4,4.797,1.038,9.87,102.3525,5.303,6.597,26.4,0,109.9,13.46,6.07,113.4
"2010-02-28 00:20:00",1719679,8.04,149.6,5.739,1.502,8.42,102.3543,5.308,6.45,25.71,0,109.9,13.46,6.08,111.6
"2010-02-28 00:20:30",1719680,5.607,153.7,6.548,0.451,5.742,102.3506,5.298,6.254,25.72,0,109.9,13.5,6.07,115.7
"2010-02-28 00:21:00",1719681,6.059,152.3,12.15,1.207,8.12,102.3506,5.299,6.393,26.67,0,109.9,13.47,6.07,114.3
"2010-02-28 00:21:30",1719682,5.817,136.2,7.717,1.253,9.4,102.349,5.294,6.47,26.9,0,109.9,13.47,6.07,98.2
"2010-02-28 00:22:00",1719683,6.464,139.3,6.983,0.923,10.43,102.3383,5.267,6.568,27.35,0,109.9,13.47,6.04,101.3
"2010-02-28 00:22:30",1719684,6.253,139.6,6.388,1.23,9.23,102.333,5.253,6.464,27.45,0,109.9,13.47,6.02,101.6
"2010-02-28 00:23:00",1719685,6.094,132.4,9.66,0.991,8.56,102.3304,5.247,6.43,27.6,0,109.9,13.47,6.02,94.4
"2010-02-28 00:23:30",1719686,4.549,127.6,5.995,0.496,5.595,102.3304,5.247,6.305,28.39,0,109.8,13.5,6.02,89.6
"2010-02-28 00:24:00",1719687,7.998,159.1,5.4,1.67,9.73,102.3302,5.246,6.426,27.54,0,109.8,13.47,6.02,121.1
"2010-02-28 00:24:30",1719688,9.15,154.5,8.64,1.317,10.09,102.3333,5.254,6.452,25.97,0,109.8,13.47,6.02,116.5
"2010-02-28 00:25:00",1719689,7.907,145.4,5.908,1.179,10.79,102.3351,5.259,6.519,26.38,0,109.8,13.47,6.03,107.4
"2010-02-28 00:25:30",1719690,6.581,151.8,9.49,1.212,9.78,102.3362,5.262,6.451,26.95,0,109.8,13.47,6.03,113.8
"2010-02-28 00:26:00",1719691,7.096,151.7,6.758,1.061,7.625,102.3374,5.265,6.439,27.61,0,109.8,13.47,6.04,113.7
"2010-02-28 00:26:30",1719692,9.6,155.8,8.54,1.255,9.91,102.3272,5.239,6.373,27.73,0,109.8,13.47,6.01,117.8
"2010-02-28 00:27:00",1719693,7.943,142.8,11.85,1.203,8.76,102.31,5.195,6.389,27.39,0,109.8,13.47,5.97,104.8
"2010-02-28 00:27:30",1719694,7.553,139.6,10.01,1.296,9.74,102.3046,5.181,6.476,27.26,0,109.8,13.47,5.95,101.6
"2010-02-28 00:28:00",1719695,7.547,140.7,8.43,1.71,8.7,102.3049,5.182,6.428,27.63,0,109.8,13.47,5.95,102.7
"2010-02-28 00:28:30",1719696,7.995,153,6.577,1.418,9.7,102.3046,5.181,6.42,26.57,0,109.8,13.47,5.95,115.0
"2010-02-28 00:29:00",1719697,6.161,145.9,8.37,1.442,8.37,102.3064,5.186,6.38,27.23,0,109.8,13.47,5.96,107.9
"2010-02-28 00:29:30",1719698,7.295,140.8,15.44,1.061,9.43,102.3064,5.186,6.414,27.83,0,109.8,13.47,5.96,102.8
"2010-02-28 00:30:00",1719699,7.881,142.5,8.66,1.608,8.9,102.3064,5.186,6.346,27.95,0,109.8,13.47,5.96,104.5
"2010-02-28 00:30:30",1719700,8.59,145.5,8.84,1.104,9.48,102.3064,5.186,6.457,27.75,0,109.8,13.46,5.96,107.5
"2010-02-28 00:31:00",1719701,8.06,158.3,7.411,0.997,9.69,102.3055,5.183,6.346,27.94,0,109.8,13.47,5.95,120.3
"2010-02-28 00:31:30",1719702,6.967,147.5,9.73,1.212,8.57,102.2993,5.168,6.355,27.66,0,109.8,13.46,5.94,109.5
"2010-02-28 00:32:00",1719703,8.15,151.9,5.969,1.017,9.39,102.2886,5.14,6.226,27.06,0,109.8,13.47,5.91,113.9
"2010-02-28 00:32:30",1719704,7.992,146.1,7.748,1.458,9.13,102.2753,5.106,6.37,27.19,0,109.8,13.47,5.88,108.1
"2010-02-28 00:33:00",1719705,8.11,146.5,7.614,1.362,9.47,102.273,5.1,6.355,27.36,0,109.8,13.47,5.87,108.5
"2010-02-28 00:33:30",1719706,8.26,150.3,7.521,1.202,9.65,102.2727,5.1,6.332,27.17,0,109.8,13.47,5.87,112.3
"2010-02-28 00:34:00",1719707,7.543,139.1,7.293,1.098,7.432,102.2727,5.1,6.246,27.31,0,109.8,13.47,5.87,101.1
"2010-02-28 00:34:30",1719708,7.355,146.9,11.1,1.571,9.73,102.2727,5.1,6.339,27.65,0,109.8,13.47,5.87,108.9
"2010-02-28 00:35:00",1719709,5.85,141.8,12,1.785,9.5,102.2727,5.1,6.252,27.94,0,109.8,13.47,5.87,103.8
"2010-02-28 00:35:30",1719710,5.699,136.2,6.862,0.9,9.48,102.2727,5.1,6.301,28.34,0,109.8,13.47,5.87,98.2
"2010-02-28 00:36:00",1719711,4.756,139.8,8.8,1.739,8.65,102.2722,5.098,6.288,28.87,0,109.8,13.47,5.87,101.8
"2010-02-28 00:36:30",1719712,5.556,135.2,15.23,1.251,7.406,102.262,5.072,6.181,28.65,0,109.8,13.47,5.84,97.2
"2010-02-28 00:37:00",1719713,4.933,142.1,8.77,0.95,6.428,102.2439,5.026,6.178,28.65,0,109.8,13.47,5.80,104.1
"2010-02-28 00:37:30",1719714,5.078,129.8,7.958,1.435,8.82,102.2388,5.013,6.319,29.32,0,109.8,13.48,5.78,91.8
"2010-02-28 00:38:00",1719715,6.049,150,11.15,1.399,9.27,102.2388,5.013,6.28,29.34,0,109.8,13.48,5.78,112.0
"2010-02-28 00:38:30",1719716,6.713,164.8,7.098,1.216,9.3,102.2388,5.013,6.296,28.55,0,109.8,13.48,5.78,126.8
"2010-02-28 00:39:00",1719717,5.114,142.7,9.46,1.466,8.31,102.2388,5.013,6.228,28.45,0,109.8,13.48,5.78,104.7
"2010-02-28 00:39:30",1719718,4.883,138.6,5.955,1.105,6.297,102.23,4.991,6.024,28.98,0,109.8,13.48,5.76,100.6
"2010-02-28 00:40:00",1719719,6.104,146.3,13.49,1.951,7.464,102.2131,4.947,6.125,29.74,0,109.8,13.48,5.72,108.3
"2010-02-28 00:40:30",1719720,7.695,155.9,7.423,1.578,9.52,102.2066,4.931,6.189,28.26,0,109.8,13.48,5.70,117.9
"2010-02-28 00:41:00",1719721,7.317,149.1,8.5,1.166,9.69,102.2049,4.926,6.206,28.89,0,109.8,13.48,5.70,111.1
"2010-02-28 00:41:30",1719722,5.963,136.2,10.06,1.059,9.94,102.2049,4.926,6.19,28.92,0,109.8,13.48,5.70,98.2
"2010-02-28 00:42:00",1719723,5.547,131.4,5.362,1.211,8.78,102.2049,4.926,6.14,28.86,0,109.8,13.48,5.70,93.4
"2010-02-28 00:42:30",1719724,4.137,126.1,5.44,0.74,6.126,102.2049,4.926,6.056,29.44,0,109.8,13.48,5.70,88.1
"2010-02-28 00:43:00",1719725,3.892,135.5,9.98,0.977,6.222,102.2038,4.923,5.987,29.8,0,109.8,13.48,5.69,97.5
"2010-02-28 00:43:30",1719726,4.34,142.6,7.044,1.062,7.19,102.1885,4.885,6.081,29.73,0,109.8,13.48,5.65,104.6
"2010-02-28 00:44:00",1719727,5.194,145.6,5.672,1.278,9.46,102.1729,4.845,6.14,29.6,0,109.8,13.48,5.61,107.6
"2010-02-28 00:44:30",1719728,7.13,156.3,14.37,0.633,10.67,102.171,4.84,6.201,29.55,0,109.8,13.48,5.61,118.3
"2010-02-28 00:45:00",1719729,6.097,163.1,11.04,1.338,8.31,102.171,4.84,6.073,28.95,0,109.8,13.48,5.61,125.1
"2010-02-28 00:45:30",1719730,5.161,143.3,10.76,1.266,7.287,102.171,4.84,5.959,28.56,0,109.8,13.48,5.61,105.3
"2010-02-28 00:46:00",1719731,5.276,138.7,5.191,1.223,7.363,102.171,4.84,6.017,28.91,0,109.8,13.48,5.61,100.7
"2010-02-28 00:46:30",1719732,4.799,134.6,4.355,0.778,5.581,102.171,4.84,5.86,28.96,0,109.8,13.51,5.61,96.6
"2010-02-28 00:47:00",1719733,7.173,150.2,5.644,1.089,9.84,102.1642,4.822,6.088,29.1,0,109.8,13.48,5.59,112.2
"2010-02-28 00:47:30",1719734,7.795,159.1,7.364,0.697,10.64,102.1543,4.797,6.135,29.34,0,109.8,13.48,5.57,121.1
"2010-02-28 00:48:00",1719735,7.75,154.3,11.64,0.869,10.1,102.1472,4.779,6.109,29.08,0,109.8,13.48,5.55,116.3
"2010-02-28 00:48:30",1719736,6.015,141.4,12.66,1.16,8.31,102.1413,4.764,6.006,29.54,0,109.8,13.48,5.53,103.4
"2010-02-28 00:49:00",1719737,5.772,140.7,6.007,1.066,6.934,102.137,4.753,5.938,29.59,0,109.8,13.48,5.52,102.7
"2010-02-28 00:49:30",1719738,5.502,138,5.286,0.814,6.042,102.137,4.753,5.793,29.44,0,109.8,13.48,5.52,100.0
"2010-02-28 00:50:00",1719739,6.644,153.3,9.27,0.928,9.31,102.137,4.753,6.111,29.39,0,109.8,13.48,5.52,115.3
"2010-02-28 00:50:30",1719740,6.805,153.2,6.626,0.826,10.37,102.137,4.753,6.118,29.43,0,109.8,13.48,5.52,115.2
"2010-02-28 00:51:00",1719741,6.794,152.5,5.838,0.737,9.78,102.137,4.753,6.038,29.49,0,109.8,13.48,5.52,114.5
"2010-02-28 00:51:30",1719742,5.148,133.9,6.095,0.773,6.507,102.1359,4.75,5.949,29.72,0,109.8,13.48,5.52,95.9
"2010-02-28 00:52:00",1719743,5.796,136.1,5.097,1.231,6.855,102.1286,4.731,5.804,29.89,0,109.8,13.48,5.50,98.1
"2010-02-28 00:52:30",1719744,5.02,128.9,7.44,0.679,6.604,102.1206,4.711,5.989,30.52,0,109.8,13.49,5.48,90.9
"2010-02-28 00:53:00",1719745,5.928,139.1,7.199,0.958,9.48,102.1082,4.679,5.989,30.53,0,109.8,13.49,5.45,101.1
"2010-02-28 00:53:30",1719746,6.398,154.9,10.28,0.855,10.05,102.1034,4.667,6.013,30.22,0,109.8,13.49,5.44,116.9
"2010-02-28 00:54:00",1719747,6.382,153.7,6.893,1.212,7.536,102.1031,4.666,5.968,30.02,0,109.8,13.49,5.43,115.7
"2010-02-28 00:54:30",1719748,5.955,156.5,8.96,1.304,8.45,102.1031,4.666,5.962,30.03,0,109.8,13.49,5.43,118.5
"2010-02-28 00:55:00",1719749,4.904,140.3,5.143,1.011,6.419,102.1031,4.666,5.786,30.15,0,109.8,13.49,5.43,102.3
"2010-02-28 00:55:30",1719750,4.393,133,3.543,0.615,5.941,102.0992,4.656,5.826,30.06,0,109.8,13.49,5.42,95.0
"2010-02-28 00:56:00",1719751,5.888,154.8,7.745,1.018,8.91,102.0896,4.632,5.935,30.18,0,109.8,13.49,5.40,116.8
"2010-02-28 00:56:30",1719752,5.765,155.5,7.904,1.203,8.48,102.0816,4.612,5.881,30.14,0,109.8,13.49,5.38,117.5
"2010-02-28 00:57:00",1719753,5.254,149.6,8.47,1.33,8.01,102.0794,4.606,5.842,29.98,0,109.8,13.49,5.37,111.6
"2010-02-28 00:57:30",1719754,4.341,159.1,12.57,1.254,7.588,102.0703,4.583,5.895,30.22,0,109.8,13.49,5.35,121.1
"2010-02-28 00:58:00",1719755,4.275,152.5,9.75,1.286,7.112,102.0692,4.58,5.744,30.33,0,109.8,13.49,5.35,114.5
"2010-02-28 00:58:30",1719756,4.847,149.1,10.03,1.52,7.434,102.0695,4.581,5.716,30.3,0,109.8,13.49,5.35,111.1
"2010-02-28 00:59:00",1719757,5.168,156.1,7.309,1.237,8.41,102.0698,4.581,5.854,30.4,0,109.8,13.49,5.35,118.1
"2010-02-28 00:59:30",1719758,4.437,154,11,1.152,7.938,102.0698,4.581,5.858,30.48,0,109.8,13.49,5.35,116.0
"2010-02-28 01:00:00",1719759,4.323,143.8,11.11,1.258,7.038,102.0658,4.571,5.746,30.29,0,109.8,13.5,5.34,105.8
"2010-02-28 01:00:30",1719760,4.827,147,11.73,1.007,8.62,102.052,4.536,5.841,30.72,0,109.8,13.49,5.30,109.0
"2010-02-28 01:01:00",1719761,4.126,144.9,10.98,1.064,5.667,102.0367,4.497,5.611,30.6,0,109.8,13.49,5.26,106.9
"2010-02-28 01:01:30",1719762,5.45,149,8.14,1.428,6.984,102.0376,4.499,5.756,30.41,0,109.8,13.48,5.27,111.0
"2010-02-28 01:02:00",1719763,6.811,152.4,6.993,1.214,8.54,102.0382,4.501,5.786,30.06,0,109.8,13.48,5.27,114.4
"2010-02-28 01:02:30",1719764,5.961,156.1,6.336,1.192,8.94,102.0367,4.497,5.787,30.1,0,109.8,13.49,5.26,118.1
"2010-02-28 01:03:00",1719765,5.678,147.3,8.2,1.095,8.88,102.039,4.503,5.806,30.38,0,109.8,13.48,5.27,109.3
"2010-02-28 01:03:30",1719766,5.457,146.7,7.469,1.151,8.44,102.0405,4.507,5.73,30.31,0,109.8,13.48,5.27,108.7
"2010-02-28 01:04:00",1719767,4.869,146.6,4.006,0.696,5.366,102.0428,4.512,5.616,30.27,0,109.8,13.52,5.28,108.6
"2010-02-28 01:04:30",1719768,6.164,142.3,7.964,1.276,7.184,102.0362,4.496,5.736,30.2,0,109.8,13.48,5.26,104.3
"2010-02-28 01:05:00",1719769,7.048,155,5.712,1.199,8.97,102.0289,4.477,5.727,30.07,0,109.8,13.49,5.24,117.0
"2010-02-28 01:05:30",1719770,6.474,151,6.202,1.151,9.33,102.0261,4.47,5.802,30.16,0,109.8,13.49,5.24,113.0
"2010-02-28 01:06:00",1719771,6.668,149.2,6.543,1.168,9.06,102.016,4.444,5.767,30.28,0,109.8,13.5,5.21,111.2
"2010-02-28 01:06:30",1719772,7.278,146.7,6.792,1.338,8.88,102.0123,4.435,5.734,30.36,0,109.8,13.5,5.20,108.7
"2010-02-28 01:07:00",1719773,5.776,138,5.602,0.934,6.309,102.0114,4.432,5.67,30.24,0,109.8,13.5,5.20,100.0
"2010-02-28 01:07:30",1719774,6.459,146.6,5.896,1.211,8.84,102.0117,4.433,5.747,30.38,0,109.8,13.5,5.20,108.6
"2010-02-28 01:08:00",1719775,6.782,145.1,7.357,1.123,8.79,102.0129,4.436,5.709,30.33,0,109.8,13.5,5.20,107.1
"2010-02-28 01:08:30",1719776,6.571,143.8,8.44,1.509,7.813,102.012,4.434,5.68,30.33,0,109.8,13.5,5.20,105.8
"2010-02-28 01:09:00",1719777,6.808,145.3,6.119,1.178,8.58,102.014,4.439,5.733,30.4,0,109.8,13.5,5.21,107.3
"2010-02-28 01:09:30",1719778,7.465,148.8,5.509,1.174,9.16,102.0175,4.448,5.722,30.39,0,109.8,13.5,5.22,110.8
"2010-02-28 01:10:00",1719779,6.677,143.5,6.083,1.28,8.82,102.0169,4.446,5.718,30.42,0,109.8,13.5,5.21,105.5
"2010-02-28 01:10:30",1719780,7.32,144.4,6.009,1.093,8.94,102.0169,4.446,5.702,30.36,0,109.8,13.5,5.21,106.4
"2010-02-28 01:11:00",1719781,7.236,139.3,6.26,1.355,7.401,102.0167,4.446,5.593,30.22,0,109.8,13.5,5.21,101.3
"2010-02-28 01:11:30",1719782,7.089,139.9,7.066,1.405,7.438,102.0138,4.439,5.587,30.28,0,109.8,13.5,5.21,101.9
"2010-02-28 01:12:00",1719783,7.429,135.8,9.2,1.305,8.61,102.0122,4.434,5.628,30.36,0,109.8,13.5,5.20,97.8
"2010-02-28 01:12:30",1719784,7.777,134.5,9.2,1.058,9.51,102.008,4.424,5.747,30.83,0,109.8,13.5,5.19,96.5
"2010-02-28 01:13:00",1719785,7.439,147.9,9.86,0.882,9.25,102.0063,4.419,5.668,30.88,0,109.8,13.5,5.19,109.9
"2010-02-28 01:13:30",1719786,7.765,141,6.267,1.115,8.88,102.0027,4.41,5.669,30.55,0,109.8,13.5,5.18,103.0
"2010-02-28 01:14:00",1719787,7.087,136.3,10.37,1.053,7.025,101.9944,4.389,5.578,30.43,0,109.8,13.5,5.16,98.3
"2010-02-28 01:14:30",1719788,7.607,142.8,5.951,1.213,8.36,101.9913,4.381,5.51,30.28,0,109.8,13.5,5.15,104.8
"2010-02-28 01:15:00",1719789,7.889,146.8,7.261,1.237,9.29,101.9916,4.382,5.673,30.4,0,109.8,13.5,5.15,108.8
"2010-02-28 01:15:30",1719790,8.2,143.4,4.862,0.889,9.99,101.9919,4.383,5.685,30.62,0,109.8,13.5,5.15,105.4
"2010-02-28 01:16:00",1719791,7.577,149.5,4.579,0.804,9.98,101.9919,4.383,5.731,30.75,0,109.8,13.5,5.15,111.5
"2010-02-28 01:16:30",1719792,7.673,149.7,5.565,1.083,8.85,101.9931,4.386,5.615,30.67,0,109.8,13.49,5.15,111.7
"2010-02-28 01:17:00",1719793,6.318,140.1,5.733,0.773,5.577,101.994,4.388,5.418,30.59,0,109.8,13.49,5.16,102.1
"2010-02-28 01:17:30",1719794,6.444,146.8,7.373,1.242,7.407,101.9942,4.388,5.609,30.85,0,109.8,13.49,5.16,108.8
"2010-02-28 01:18:00",1719795,6.791,147.3,11.54,1.103,8.97,101.9942,4.388,5.638,31.31,0,109.8,13.49,5.16,109.3
"2010-02-28 01:18:30",1719796,6.687,145.1,5.963,0.944,9.85,101.994,4.388,5.688,31.28,0,109.8,13.49,5.16,107.1
"2010-02-28 01:19:00",1719797,6.78,150.5,7.26,0.963,9.13,101.9937,4.387,5.665,31.29,0,109.8,13.49,5.15,112.5
"2010-02-28 01:19:30",1719798,6.262,150.8,9.31,1.278,7.591,101.994,4.388,5.537,30.82,0,109.8,13.49,5.16,112.8
"2010-02-28 01:20:00",1719799,6.43,147.8,5.474,1.365,6.976,101.992,4.383,5.53,30.55,0,109.8,13.49,5.15,109.8
"2010-02-28 01:20:30",1719800,6.655,147.4,8.55,1.207,6.405,101.9866,4.369,5.506,30.67,0,109.8,13.49,5.14,109.4
"2010-02-28 01:21:00",1719801,7.917,160.1,4.477,1.106,9.59,101.9781,4.347,5.625,30.42,0,109.8,13.49,5.11,122.1
"2010-02-28 01:21:30",1719802,7.486,151.3,5.796,0.847,10.53,101.9725,4.333,5.664,30.36,0,109.8,13.5,5.10,113.3
"2010-02-28 01:22:00",1719803,7.148,152.3,10.94,1.014,9.62,101.9699,4.326,5.657,30.88,0,109.8,13.5,5.09,114.3
"2010-02-28 01:22:30",1719804,6.775,152.5,6.351,0.909,6.6,101.9706,4.328,5.448,30.51,0,109.8,13.5,5.10,114.5
"2010-02-28 01:23:00",1719805,7.02,153.5,6.558,0.885,7.202,101.9697,4.326,5.486,30.05,0,109.8,13.5,5.09,115.5
"2010-02-28 01:23:30",1719806,5.833,149.6,2.72,0.467,5.857,101.9677,4.321,5.478,30.05,0,109.8,13.5,5.09,111.6
"2010-02-28 01:24:00",1719807,7.656,165.6,4.692,0.93,9.8,101.9692,4.324,5.605,30.28,0,109.8,13.5,5.09,127.6
"2010-02-28 01:24:30",1719808,7.573,162.7,3.977,0.733,10.26,101.9686,4.323,5.642,30.67,0,109.8,13.5,5.09,124.7
"2010-02-28 01:25:00",1719809,6.874,161.3,5.104,1.02,9.24,101.9672,4.319,5.675,30.98,0,109.8,13.5,5.09,123.3
"2010-02-28 01:25:30",1719810,5.309,150.8,6.739,1.159,5.795,101.9672,4.32,5.4,30.81,0,109.8,13.5,5.09,112.8
"2010-02-28 01:26:00",1719811,6.69,156,6.334,1.184,6.768,101.9667,4.318,5.47,30.24,0,109.8,13.5,5.09,118.0
"2010-02-28 01:26:30",1719812,6.531,154.9,5.449,0.991,6.373,101.9678,4.321,5.419,30.01,0,109.8,13.5,5.09,116.9
"2010-02-28 01:27:00",1719813,7.945,164.4,5.127,0.952,9.72,101.9667,4.318,5.578,30.29,0,109.8,13.5,5.09,126.4
"2010-02-28 01:27:30",1719814,8.5,167,5.27,0.777,10.44,101.9669,4.319,5.639,30.28,0,109.8,13.5,5.09,129.0
"2010-02-28 01:28:00",1719815,8.25,165.6,5.149,0.53,10.17,101.9655,4.315,5.632,30.33,0,109.8,13.5,5.08,127.6
"2010-02-28 01:28:30",1719816,7.11,161.6,7.747,1.262,7.597,101.9672,4.32,5.471,30.14,0,109.8,13.5,5.09,123.6
"2010-02-28 01:29:00",1719817,6.741,161.5,7.571,1.623,7.005,101.9675,4.32,5.399,30.28,0,109.8,13.5,5.09,123.5
"2010-02-28 01:29:30",1719818,6.132,158.8,5.563,1.335,7.124,101.9678,4.321,5.462,30.7,0,109.8,13.5,5.09,120.8
"2010-02-28 01:30:00",1719819,6.804,160.5,8.25,1.319,7.896,101.9678,4.321,5.531,30.47,0,109.8,13.5,5.09,122.5
"2010-02-28 01:30:30",1719820,7.649,169.8,2.647,0.872,9.91,101.9675,4.32,5.625,30.55,0,109.8,13.5,5.09,131.8
"2010-02-28 01:31:00",1719821,7.344,164.5,6.257,1.217,8.79,101.9681,4.322,5.561,30.65,0,109.8,13.5,5.09,126.5
"2010-02-28 01:31:30",1719822,7.018,161.4,6.704,1.17,8.75,101.9678,4.321,5.537,30.47,0,109.8,13.5,5.09,123.4
"2010-02-28 01:32:00",1719823,6.683,161,8.03,1.243,7.27,101.9681,4.322,5.448,30.62,0,109.8,13.5,5.09,123.0
"2010-02-28 01:32:30",1719824,5.387,155.1,2.49,0.161,5.096,101.9681,4.322,5.309,30.37,0,109.8,13.54,5.09,117.1
"2010-02-28 01:33:00",1719825,6.545,160,5.627,1.238,7.743,101.9681,4.322,5.489,30.61,0,109.8,13.5,5.09,122.0
"2010-02-28 01:33:30",1719826,7.225,163.5,4.902,0.837,9.7,101.9658,4.316,5.601,30.83,0,109.8,13.5,5.08,125.5
"2010-02-28 01:34:00",1719827,6.951,157.8,7.287,0.997,8.65,101.9596,4.3,5.484,30.85,0,109.8,13.5,5.07,119.8
"2010-02-28 01:34:30",1719828,6.133,157.6,7.94,1.384,7.833,101.9472,4.268,5.534,31.09,0,109.8,13.5,5.04,119.6
"2010-02-28 01:35:00",1719829,5.43,154.5,6.057,1.102,6.253,101.9359,4.239,5.398,30.83,0,109.8,13.5,5.01,116.5
"2010-02-28 01:35:30",1719830,5.154,156.4,2.811,0.317,5.225,101.9342,4.235,5.351,30.59,0,109.8,13.5,5.00,118.4
"2010-02-28 01:36:00",1719831,6.503,165.6,7.668,1.207,8.55,101.9342,4.235,5.502,30.89,0,109.8,13.5,5.00,127.6
"2010-02-28 01:36:30",1719832,6.253,161.3,7.417,1.296,7.867,101.9342,4.235,5.51,30.97,0,109.8,13.5,5.00,123.3
"2010-02-28 01:37:00",1719833,7.153,168,5.337,1.212,8.66,101.9342,4.235,5.508,30.67,0,109.8,13.5,5.00,130.0
"2010-02-28 01:37:30",1719834,6.831,164.6,6.478,1.144,8.2,101.9342,4.235,5.439,30.61,0,109.7,13.5,5.00,126.6
"2010-02-28 01:38:00",1719835,6.494,165.9,8.17,1.29,7.872,101.9316,4.229,5.39,30.79,0,109.8,13.5,5.00,127.9
"2010-02-28 01:38:30",1719836,6.056,164.4,7.486,1.373,7.877,101.9195,4.198,5.48,30.98,0,109.7,13.51,4.96,126.4
"2010-02-28 01:39:00",1719837,6.325,164,6.916,1.204,7.927,101.9166,4.19,5.471,30.85,0,109.8,13.51,4.96,126.0
"2010-02-28 01:39:30",1719838,6.557,164.1,6.49,1.235,7.666,101.9127,4.18,5.365,30.8,0,109.8,13.51,4.95,126.1
"2010-02-28 01:40:00",1719839,6.462,164.6,6.159,1.247,8.03,101.9022,4.154,5.472,30.95,0,109.7,13.51,4.92,126.6
"2010-02-28 01:40:30",1719840,6.729,165.5,6.844,1.154,8.42,101.9002,4.148,5.44,31.07,0,109.8,13.51,4.91,127.5
"2010-02-28 01:41:00",1719841,5.654,162.7,4.923,1.322,6.929,101.9002,4.148,5.25,31.11,0,109.7,13.51,4.91,124.7
"2010-02-28 01:41:30",1719842,7.146,170,5.339,1.073,8.52,101.9002,4.148,5.346,30.95,0,109.8,13.51,4.91,132.0
"2010-02-28 01:42:00",1719843,6.283,164,6.525,1.297,7.769,101.8991,4.146,5.427,31.13,0,109.8,13.51,4.91,126.0
"2010-02-28 01:42:30",1719844,6.406,161.2,6.37,1.091,6.683,101.8906,4.124,5.281,30.84,0,109.8,13.51,4.89,123.2
"2010-02-28 01:43:00",1719845,6.776,167.5,7.303,1.102,8.4,101.8824,4.103,5.396,30.97,0,109.8,13.51,4.87,129.5
"2010-02-28 01:43:30",1719846,7.228,167.5,7.065,1.106,8.94,101.8714,4.075,5.355,30.57,0,109.8,13.51,4.84,129.5
"2010-02-28 01:44:00",1719847,6.222,165.9,8.86,1.619,7.52,101.8666,4.063,5.362,30.58,0,109.8,13.51,4.83,127.9
"2010-02-28 01:44:30",1719848,6.758,166.8,6.761,1.162,8.69,101.8663,4.062,5.351,30.59,0,109.8,13.51,4.83,128.8
"2010-02-28 01:45:00",1719849,6.369,164.6,6.965,1.332,7.296,101.8663,4.062,5.298,30.73,0,109.8,13.51,4.83,126.6
"2010-02-28 01:45:30",1719850,6.092,159.8,4.47,0.711,5.859,101.8663,4.062,5.28,30.46,0,109.8,13.51,4.83,121.8
"2010-02-28 01:46:00",1719851,7.69,170.2,6.167,1.103,8.74,101.8663,4.062,5.339,29.94,0,109.8,13.51,4.83,132.2
"2010-02-28 01:46:30",1719852,6.908,165.1,6.449,1.174,8.18,101.8663,4.062,5.361,29.88,0,109.8,13.51,4.83,127.1
"2010-02-28 01:47:00",1719853,7.525,173.5,4.251,0.886,9.75,101.8663,4.062,5.368,30.11,0,109.8,13.51,4.83,135.5
"2010-02-28 01:47:30",1719854,6.426,168,6.976,1.088,8.48,101.8663,4.062,5.32,31.11,0,109.8,13.51,4.83,130.0
"2010-02-28 01:48:00",1719855,5.808,157.9,6.66,1.348,7.563,101.8663,4.062,5.294,31.41,0,109.8,13.51,4.83,119.9
"2010-02-28 01:48:30",1719856,6.401,164.4,6.465,1.251,6.887,101.8663,4.062,5.208,30.74,0,109.8,13.51,4.83,126.4
"2010-02-28 01:49:00",1719857,7.045,165,6.583,1.468,7.455,101.8663,4.062,5.195,30.06,0,109.8,13.51,4.83,127.0